• Processing (Info)

  • MPEC 2022-U96 : 2022 UY2

    The following Minor Planet Electronic Circular may be linked-to from your own Web pages, but must not otherwise be redistributed electronically.

    A form allowing access to any MPEC is at the bottom of this page.


    Read MPEC 2022-U95 Read MPEC 2022-U97


    M.P.E.C. 2022-U96                              Issued 2022 October 20, 10:45 UT
    
         The Minor Planet Electronic Circulars contain information on unusual
             minor planets and routine data on comets.  They are published
        on behalf of Division F of the International Astronomical Union by the
              Minor Planet Center, Smithsonian Astrophysical Observatory,
                              Cambridge, MA 02138, U.S.A.
    
                 Prepared using the Tamkin Foundation Computer Network
    
                                  MPC@CFA.HARVARD.EDU
                URL https://www.minorplanetcenter.net/    ISSN 1523-6714
    
                                    2022 UY2                                 
    
    
    Observations:
         K22U02Y* C2022 10 18.45715303 13 01.599-26 49 50.69         19.15wUEU096F52
         K22U02Y  C2022 10 18.46781803 13 22.627-26 46 47.89               VEU096F52
         K22U02Y  C2022 10 18.48839103 14 03.077-26 40 52.92         19.22wUEU096F52
         K22U02Y  C2022 10 18.54404703 15 52.308-26 24 34.87         19.11GVEU096F51
         K22U02Y  C2022 10 18.54468803 15 53.588-26 24 23.28         19.23GVEU096F51
         K22U02Y bC2022 10 19.04563603 33 22.14 -23 55 10.2          18.3 GVEU096L01
         K22U02Y KC2022 10 19.04711703 33 25.04 -23 54 42.8          18.7 GVEU096L01
         K22U02Y bC2022 10 19.04859903 33 27.87 -23 54 15.0          18.6 GVEU096L01
         K22U02Y bC2022 10 19.05008103 33 30.75 -23 53 47.9          18.6 GVEU096L01
         K22U02Y bC2022 10 19.05156303 33 33.58 -23 53 20.6          19.1 GVEU096L01
         K22U02Y  C2022 10 19.36879 03 44 15.48 -22 13 23.7          19.5 GVEU096703
         K22U02Y  C2022 10 19.37403 03 44 24.96 -22 11 46.4          18.9 GVEU096703
         K22U02Y  C2022 10 19.38189903 44 42.158-22 09 22.88         19.2 GVEU096654
         K22U02Y  C2022 10 19.40248903 45 19.958-22 02 52.86         19.1 GVEU096654
         K22U02Y  C2022 10 19.43029003 46 10.865-21 54 02.73         19.2 GVEU096654
         K22U02Y  C2022 10 19.47896103 47 55.269-21 37 33.36         18.94GVEU096F51
         K22U02Y  C2022 10 19.47960003 47 56.423-21 37 21.21         19.04GVEU096F51
         K22U02Y KC2022 10 20.31167404 13 47.63 -17 10 49.4          19.8 VuEU096H21
         K22U02Y KC2022 10 20.31292004 13 49.68 -17 10 25.4          19.6 VuEU096H21
         K22U02Y KC2022 10 20.31416604 13 51.73 -17 10 01.4          19.4 VuEU096H21
         K22U02Y KC2022 10 20.31541204 13 53.79 -17 09 37.2          19.7 VuEU096H21
    
    Observer details:
    654 Table Mountain Observatory, Wrightwood-PHMC.  Observers N. Evans, P. Choi,
        N. Saini, C. Zhai, R. Trahan, M. Shao.  1.0-m Reflector + CCD.
    703 Catalina Sky Survey.  Observer J. B. Fazekas.  Measurers B. Gray, D.
        Rankin, F. C. Shelly.  0.68-m Schmidt + 10K CCD.
    F51 Pan-STARRS 1, Haleakala.  Observers J. Bulger, K. Chambers, T. Lowe, A.
        Schultz, I. Smith.  Measurers S. Chastel, J. Fairlamb, M. Huber, Y.
        Ramanjooloo, R. Wainscoat, R. Weryk.  1.8-m Ritchey-Chretien + CCD.
    F52 Pan-STARRS 2, Haleakala.  Observers J. Bulger, T. Lowe, A. Schultz, I.
        Smith, K. Chambers, T. Dukes.  Measurers K. Chambers, S. Chastel, T. de
        Boer, J. Fairlamb, H. Gao, M. Huber, C.-C. Lin, E. Magnier, Y.
        Ramanjooloo, R. Wainscoat, R. Weryk.  1.8-m Ritchey-Chretien + CCD.
    H21 Astronomical Research Observatory, Westfield.  Observer R. Holmes.
        Measurers T. Linder, R. Holmes, L. Horn.  0.81-m f/4.0 astrograph + CCD.
    L01 Visnjan Observatory, Tican.  Observer K. Korlevic.  1.0-m f/2.9 reflector
        + CCD.
    
    Orbital elements:
    2022 UY2                                                 Earth MOID = 0.0216 AU
    Epoch 2022 Aug. 9.0 TT = JDT 2459800.5                  Veres                   
    M 334.79350              (2000.0)            P               Q                  
    n   0.33454491     Peri.  339.72107     +0.85958265     -0.51024139             
    a   2.0551006      Node    50.98988     +0.47362034     +0.77512675             
    e   0.5077308      Incl.    2.04838     +0.19183701     +0.37260198             
    P   2.95           H   25.74          G   0.15           U   7                  
    Residuals in seconds of arc
    221018 F52  0.2-  0.3-    221019 L01  0.5-  0.6+    221019 654  0.1-  0.1-
    221018 F52  0.0   0.1-    221019 L01  0.0   0.1+    221019 F51  0.0   0.0
    221018 F52  0.0   0.1-    221019 L01  0.2-  0.2-    221019 F51  0.0   0.1+
    221018 F51  0.1-  0.1-    221019 703 (1.1+  1.4+)   221020 H21  0.2+  0.1-
    221018 F51  0.2+  0.1+    221019 703  0.9-  0.4-    221020 H21  0.1+  0.1-
    221019 L01  1.0-  0.4+    221019 654  0.0   0.1-    221020 H21  0.1-  0.1-
    221019 L01  0.3-  0.3+    221019 654  0.0   0.0     221020 H21  0.0   0.1+
    
    Ephemeris:
    2022 UY2                 a,e,i = 2.06, 0.51, 2                   q = 1.0117
    Date    TT    R. A. (2000) Decl.     Delta      r    Elong.  Phase     V
    2022 09 20    21 35 56.6 -32 20 38   0.1125  1.0883   136.1    39.8    22.8
    ...
    2022 10 05    22 20 54.0 -37 26 55   0.05789 1.0359   126.7    50.7    21.5
    ...
    2022 10 13    00 12 15.3 -39 38 27   0.03248 1.0194   130.9    47.8    20.1
    ...
    2022 10 19    03 31 48.7 -24 03 37   0.02330 1.0130   135.5    43.5    19.3
    2022 10 20    04 04 18.6 -18 46 30   0.02364 1.0124   133.7    45.4    19.4
    2022 10 21    04 33 08.2 -13 26 47   0.02456 1.0120   131.1    47.9    19.5
    ...
    2022 10 27    06 17 00.7 +08 36 57   0.03831 1.0125   117.9    60.2    20.8
    ...
    2022 11 04    07 06 30.5 +19 06 45   0.06455 1.0213   115.5    61.3    22.0
    ...
    2022 11 19    07 30 00.5 +25 27 58   0.1169  1.0613   126.0    48.9    23.0
    
    M. P. C. Staff               (C) Copyright 2022 MPC           M.P.E.C. 2022-U96
    


    Read MPEC 2022-U95 Read MPEC 2022-U97


    MPEC number:

    Enter an MPEC number in one of the following forms:

    • 1997-B01 (the full form)
    • J97B01 (the packed version of the full form)
    • B01 (the abbreviated form)